User: anonymous   Login
Location: *
(17.3280°S, 114.7300°W)
Time: 14:02:46
(UTC+00:00)
Language:

COSMO-SKYMED 1 - Orbit

View from above orbital plane
View from above orbital plane
View from above satellite
View from above satellite

Ground track
Ground track

The orbit data is extracted from the following two-line orbital elements,

1 31598U 07023A   20295.11494141 -.00000274  00000-0 -27855-4 0  9997
2 31598  97.8868 116.4554 0001323  85.6251 274.5106 14.82154011723448
Epoch (UTC): 21 October 2020 02:45:30
Eccentricity: 0.0001323
inclination: 97.8868°
perigee height: 621 km
apogee height: 623 km
right ascension of ascending node: 116.4554°
argument of perigee: 85.6251°
revolutions per day: 14.82154011
mean anomaly at epoch: 274.5106°
orbit number at epoch: 72344

The dashed part of the orbit path shows where the satellite is in the earth's shadow,  

DLR